Wind_Speed
17 15 13 11 9 8 7 5 4 4 4 4 6 6 4 2 2 1 1 1 1 0 1 1 1 3 3 3 3 5 6 7 7 7 8 8 8 10 12 15 17 17 17 14 10 5 2 2 6 10 14 17 21 25 28 30 30 30 29 28 28 29 31
17 16 14 12 10 8 8 7 6 4 4 5 5 4 4 2 1 0 0 1 1 1 1 2 3 4 4 4 4 5 5 6 6 6 7 8 7 9 10 13 15 16 18 19 16 12 6 4 3 4 7 9 11 16 21 26 29 30 30 29 29 30 32
19 17 15 14 12 9 8 8 7 6 5 5 5 4 3 1 2 3 3 4 4 3 3 3 2 3 4 4 5 6 6 6 6 6 6 7 8 10 11 12 13 13 13 12 14 15 10 8 7 6 8 9 7 10 13 16 21 27 30 30 30 31 33
22 20 18 17 14 12 10 9 8 8 6 5 5 5 3 3 3 4 4 4 4 4 4 4 4 5 6 7 8 8 8 7 7 7 7 6 7 9 11 12 14 15 14 13 15 16 11 8 8 6 11 13 11 14 16 16 17 19 22 27 30 32 33
25 23 21 19 17 15 13 11 10 10 8 7 6 5 4 4 3 1 2 3 4 5 5 6 7 8 9 10 11 11 10 10 9 9 9 9 9 9 11 12 13 15 18 19 20 19 15 15 12 7 11 15 11 15 21 23 23 21 21 23 26 29 32
24 24 22 20 18 18 16 14 14 13 11 10 8 7 6 5 3 2 3 4 5 7 8 9 9 10 11 12 13 13 13 12 11 10 10 10 10 11 12 13 14 15 18 20 21 20 19 21 18 11 14 16 11 13 19 21 23 24 25 26 26 27 28
24 24 23 20 20 20 18 16 15 15 14 13 11 9 9 8 6 5 5 6 6 8 10 11 10 10 11 12 13 14 13 13 13 12 12 11 11 11 12 13 14 15 17 18 20 21 20 20 18 15 14 13 12 14 16 19 21 20 23 28 30 30 30
25 25 23 21 21 22 20 17 16 15 15 14 12 11 10 10 8 7 7 7 7 8 10 9 9 9 11 13 13 13 13 13 14 15 14 14 14 13 13 14 14 15 16 17 19 20 20 21 21 20 15 9 8 10 10 15 18 19 24 28 28 30 30
25 25 24 23 23 22 21 19 17 17 16 14 13 13 11 10 9 9 9 8 7 8 8 8 7 8 10 12 14 15 14 14 15 15 15 16 16 16 15 15 16 16 16 16 17 18 20 21 22 23 20 13 9 6 5 8 10 14 24 26 24 28 29
26 25 25 24 23 22 22 20 18 18 18 16 14 14 12 11 10 10 9 8 7 8 7 7 7 8 10 13 14 15 16 16 16 15 15 15 16 17 17 17 17 17 17 16 16 16 17 20 22 23 24 21 16 8 5 7 7 10 19 22 23 25 26
27 26 26 24 22 22 23 21 20 20 20 17 16 14 13 12 11 10 9 8 8 8 7 7 8 10 12 14 15 16 16 17 18 17 16 16 16 17 19 19 19 19 19 18 17 17 17 18 19 21 24 25 24 17 11 9 8 11 16 19 22 23 21
28 27 25 24 22 23 23 22 21 21 20 18 16 15 13 12 11 10 9 8 8 8 8 8 9 11 12 13 14 14 16 17 18 19 18 18 18 18 20 21 21 21 21 21 20 20 19 19 19 19 21 24 27 27 22 13 8 14 20 19 21 22 19
29 27 26 24 24 24 24 23 22 21 19 18 16 15 14 13 11 10 9 8 8 8 9 10 10 11 11 12 12 12 13 14 16 18 19 20 20 21 21 22 23 23 23 24 23 22 22 21 21 21 21 22 24 26 28 21 9 14 27 26 22 23 20
30 28 26 25 25 24 24 23 22 20 18 16 15 14 13 12 10 9 9 9 9 9 10 9 9 10 11 11 11 12 12 12 14 16 18 20 20 21 21 22 24 24 23 24 24 24 24 23 23 23 22 22 23 23 24 23 15 13 25 29 25 25 25
30 28 27 26 25 24 24 23 21 19 17 15 14 13 13 11 9 9 10 10 10 9 8 8 9 10 10 10 10 10 10 12 13 15 17 18 20 20 20 22 24 25 23 23 24 24 24 24 24 25 25 23 24 25 23 23 20 15 19 26 26 26 26
30 29 27 26 26 25 24 22 20 18 16 14 14 13 11 9 9 9 10 9 8 7 7 8 9 9 10 11 11 12 13 14 15 16 17 18 19 19 20 22 23 24 23 23 24 24 24 24 23 24 26 25 24 25 24 23 22 18 18 23 24 25 25
31 30 28 27 26 24 23 21 19 17 15 14 13 11 10 9 9 10 9 8 7 7 7 8 9 10 12 14 15 16 17 17 17 18 20 20 19 19 20 21 22 23 22 23 24 25 24 23 22 22 24 26 25 25 24 24 23 22 21 21 21 22 25
31 31 30 28 26 24 22 20 17 15 14 13 12 10 10 10 10 9 8 7 7 6 7 9 10 12 14 15 16 17 17 18 19 19 19 19 19 19 20 21 22 22 22 22 24 24 24 23 23 23 24 25 25 25 25 24 23 22 23 23 22 21 22
32 31 29 27 25 23 21 18 16 14 13 12 11 10 10 9 9 8 7 7 7 7 8 9 11 13 14 15 15 16 17 18 19 19 19 19 19 20 20 21 22 22 22 22 23 24 24 24 25 25 24 24 25 24 25 24 21 19 20 24 26 24 22
31 30 28 26 24 21 19 17 14 13 12 11 11 10 9 9 8 8 7 7 8 9 9 11 13 15 16 17 17 17 17 18 19 18 19 19 19 20 20 21 22 22 22 22 23 24 25 25 24 24 24 24 24 24 26 26 23 20 19 19 22 25 24
29 28 27 24 22 20 18 15 13 12 12 11 11 10 9 9 8 8 9 10 10 10 11 13 15 17 19 20 20 20 20 20 21 20 20 20 20 20 21 21 22 22 23 23 23 23 23 23 23 24 25 25 25 26 27 27 25 22 20 19 19 21 21
26 25 24 23 21 19 16 14 13 12 12 11 10 10 9 9 9 10 11 11 10 10 12 14 17 19 21 21 21 22 22 23 24 24 23 22 22 23 23 23 23 24 24 25 25 26 27 27 27 28 27 26 26 27 27 27 25 22 19 18 19 20 18
24 24 24 22 20 18 15 13 12 12 12 11 10 10 9 9 11 12 11 11 11 11 13 16 18 20 21 21 22 23 24 25 25 25 26 25 25 25 25 25 25 25 26 27 27 28 29 30 31 31 32 31 29 28 28 27 27 24 21 18 18 19 17
24 24 24 22 20 17 14 12 12 12 11 11 10 9 9 10 11 11 10 9 11 13 15 17 19 20 21 22 23 24 24 25 26 27 27 27 27 27 27 26 26 26 26 27 27 27 28 29 30 30 32 32 32 32 31 30 28 26 23 21 20 20 18
27 26 24 22 19 16 14 13 12 12 12 11 9 9 9 9 8 7 7 9 12 15 16 18 19 21 22 22 23 23 24 25 26 27 28 27 28 28 28 28 27 27 27 27 27 28 29 29 29 30 30 32 32 33 34 34 32 29 26 24 23 23 22
30 28 25 22 18 15 14 12 12 12 11 9 8 8 7 5 4 6 10 13 15 16 18 19 20 21 22 23 23 24 24 25 27 28 28 28 29 29 29 29 29 29 28 28 28 28 29 30 30 30 30 31 33 34 34 35 36 35 33 31 28 28 27
33 29 25 21 17 15 13 12 11 11 9 7 7 6 3 3 6 9 12 14 15 17 19 21 22 23 23 24 25 25 26 27 28 29 30 29 29 30 30 30 30 29 28 28 28 28 28 29 30 31 31 31 32 33 32 33 34 34 35 35 32 31 31
35 30 26 21 17 14 12 12 11 10 8 7 6 4 4 6 8 10 13 15 18 20 23 24 25 25 25 25 26 27 28 29 30 31 30 30 30 30 30 29 29 29 28 28 27 27 28 29 30 32 33 33 33 33 33 33 32 31 32 32 30 29 28
34 30 25 20 17 15 13 12 11 10 8 6 5 5 6 6 8 11 14 16 20 23 25 27 27 27 27 27 27 28 30 30 31 30 30 30 30 30 29 28 28 29 29 28 28 27 28 30 32 33 34 35 36 37 37 36 33 33 34 34 33 33 31
31 27 23 19 17 15 13 12 11 9 7 6 6 7 6 7 10 13 13 15 19 23 25 27 27 27 27 27 28 29 30 30 30 30 30 30 29 29 29 29 29 30 30 30 29 29 29 29 32 34 34 35 35 35 37 36 34 35 36 37 39 39 38
28 24 20 18 15 13 12 10 10 8 6 7 8 7 8 10 11 11 11 14 19 23 25 27 27 27 27 28 28 30 30 30 29 29 30 30 30 30 30 30 30 30 31 31 30 30 30 30 33 34 33 34 34 33 34 32 31 32 33 34 37 39 38
26 23 19 16 14 13 11 9 8 7 7 9 10 10 12 12 9 8 9 15 20 23 26 28 27 27 28 28 28 29 29 29 29 29 29 30 29 29 30 30 31 31 33 32 31 31 31 31 33 35 34 33 33 32 31 30 30 31 30 30 32 33 33
23 21 19 16 13 12 9 7 7 8 10 12 13 13 14 12 7 6 9 16 21 23 26 28 27 27 28 28 28 28 28 28 28 29 30 30 30 30 30 30 30 31 32 32 32 32 32 32 34 36 36 35 33 31 30 30 30 30 29 29 31 31 31
21 18 18 16 13 10 9 8 9 12 13 14 15 15 14 10 6 6 12 17 20 22 25 26 26 26 27 27 27 27 28 28 28 30 32 32 32 32 32 31 32 32 33 33 34 34 34 34 34 36 38 38 37 36 34 33 31 29 29 29 28 30 31
21 18 16 14 12 11 11 10 11 13 14 15 16 14 11 8 7 9 14 17 19 22 24 25 25 26 27 27 27 26 27 28 29 30 32 32 32 33 34 34 35 35 35 36 38 38 38 38 37 38 40 40 39 39 39 38 36 33 31 31 29 30 32
20 17 15 14 13 12 11 10 10 13 15 15 15 13 9 9 10 12 16 17 19 21 24 25 25 26 27 27 26 26 27 29 29 30 32 34 34 35 37 37 38 38 38 39 40 40 40 40 40 40 41 40 40 40 40 40 38 35 33 32 31 31 32
19 18 16 14 12 10 8 9 11 13 15 15 13 12 11 11 13 14 16 18 19 21 24 25 26 28 28 27 26 27 28 29 30 31 34 36 36 37 38 39 40 40 40 41 41 41 41 41 41 41 41 40 40 40 40 39 37 33 31 30 30 29 30
Wind_Direction
179 175 179 180 175 175 175 173 166 156 146 120 113 123 138 166 182 206 245 241 238 275 290 281 328 349 360 2 1 7 2 359 360 347 336 333 306 287 274 261 255 246 248 257 258 242 184 228 259 253 252 249 245 245 244 244 244 244 247 250 252 252 248
184 176 178 180 174 171 169 168 163 165 171 157 140 134 145 166 174 162 13 32 18 3 334 313 313 321 334 342 341 347 351 352 358 350 340 339 324 306 295 285 277 268 264 264 259 247 226 230 266 265 259 259 256 251 246 244 244 244 247 250 253 253 250
184 178 178 181 178 175 174 172 167 171 179 177 178 175 173 176 121 88 74 70 57 42 27 6 346 332 330 331 335 337 338 340 340 342 341 333 324 314 301 287 277 271 266 261 250 244 240 242 248 258 266 266 266 263 256 249 248 248 248 250 252 252 250
188 183 180 181 181 179 180 179 174 175 177 181 188 191 196 195 153 115 88 76 55 36 21 6 352 341 332 324 325 328 330 334 333 330 328 323 322 317 307 292 276 266 259 257 253 244 232 231 242 254 260 260 263 264 263 263 262 259 255 252 250 248 246
192 190 186 186 187 187 185 181 179 182 184 187 190 192 197 196 179 129 58 39 22 12 358 344 329 320 316 314 315 319 325 330 331 328 324 321 317 313 314 308 295 281 266 260 259 252 241 238 240 245 254 256 260 262 262 265 266 265 264 260 255 251 248
195 196 195 196 196 195 191 184 184 188 191 196 199 202 206 207 216 265 319 336 347 348 343 338 331 324 319 316 314 314 317 321 324 327 325 324 319 314 315 314 310 301 288 277 269 259 251 246 241 240 251 252 250 259 262 261 262 264 265 263 261 259 257
201 203 203 205 204 200 197 192 192 192 194 201 207 211 212 211 221 250 283 299 315 327 333 336 337 338 333 326 320 315 312 311 311 314 319 320 316 314 317 317 313 307 302 296 284 269 260 254 246 240 248 251 249 257 262 259 257 258 261 262 261 260 261
208 207 208 212 210 203 200 199 199 198 200 204 207 210 211 212 228 251 267 275 293 314 327 333 333 334 332 328 324 318 313 309 303 303 309 315 316 315 317 318 314 307 305 305 298 287 274 265 255 247 249 254 252 254 260 264 260 253 253 257 259 258 257
211 210 210 211 208 206 204 203 202 201 202 203 202 205 210 219 238 252 258 266 284 306 318 322 319 319 321 322 321 318 314 311 308 305 305 309 314 316 315 315 314 309 309 310 309 305 292 278 266 257 255 255 258 260 257 264 264 257 255 253 253 254 251
209 209 209 206 206 207 207 205 203 201 201 203 201 204 211 220 233 243 250 261 278 294 301 304 309 311 312 312 310 310 310 308 308 309 308 309 311 313 313 313 314 310 311 315 314 315 309 296 282 269 261 255 252 254 257 260 254 252 257 252 248 253 252
211 210 209 208 207 205 205 204 202 201 201 203 203 204 210 216 225 235 243 258 272 279 281 286 299 307 310 310 306 304 302 301 302 303 305 307 308 311 310 309 309 307 308 311 310 310 312 312 303 286 271 259 250 246 250 262 258 250 255 253 248 251 253
213 213 212 210 207 203 203 201 200 201 201 202 203 204 209 215 220 227 238 255 264 267 273 281 292 300 306 308 307 305 302 300 301 301 301 303 304 307 306 304 304 303 303 306 306 305 305 310 315 308 293 274 257 248 245 248 262 260 256 254 252 252 254
213 213 212 210 208 205 204 202 201 202 202 201 205 208 212 215 220 230 243 252 257 264 275 283 291 298 304 307 306 306 304 301 301 301 302 302 302 302 303 304 303 300 301 303 303 303 302 301 306 311 310 298 279 260 245 235 236 261 259 257 257 259 261
211 212 212 211 211 208 206 206 205 206 206 205 208 212 215 220 230 245 250 253 262 270 276 283 293 299 301 303 300 297 296 296 296 298 300 300 301 303 304 305 303 303 304 304 302 301 299 298 299 302 306 308 302 288 261 240 231 252 262 261 258 260 263
209 211 211 210 211 208 206 207 208 209 209 210 213 218 225 235 248 255 255 259 266 269 275 287 294 295 296 298 298 294 294 297 297 296 297 298 299 300 301 300 300 302 305 305 303 302 300 298 297 298 301 304 305 303 289 263 247 246 259 260 257 257 257
207 208 208 208 207 206 205 206 208 211 211 213 220 226 234 248 258 258 258 259 261 265 278 290 293 296 301 305 306 304 303 303 300 298 298 298 298 297 296 295 295 299 302 303 302 301 302 300 297 296 297 299 301 302 301 288 270 258 259 261 256 250 249
205 205 205 206 204 203 204 205 208 211 213 217 224 231 241 252 254 252 253 255 261 275 289 299 307 313 315 316 314 313 312 310 305 302 301 299 298 295 293 292 292 295 297 298 298 299 300 301 300 297 294 294 297 300 302 302 289 274 270 271 264 251 245
205 204 204 204 203 203 203 205 208 210 214 220 226 234 241 244 245 245 247 253 267 285 300 310 317 318 319 319 318 317 316 313 309 306 303 299 296 293 291 290 290 292 292 292 293 295 297 297 297 297 294 291 293 296 300 303 301 289 275 270 270 262 250
203 204 204 204 203 204 205 206 209 213 218 224 227 231 234 235 236 238 245 261 279 293 304 312 315 315 315 317 319 319 318 315 311 306 302 297 293 290 288 288 289 289 288 287 288 291 293 294 294 293 293 292 291 293 296 299 306 305 283 266 264 263 256
203 204 205 205 204 206 206 208 213 218 222 225 226 228 231 233 234 242 264 285 296 301 306 312 313 314 315 316 318 318 317 317 313 306 301 297 294 291 287 286 286 285 284 284 284 286 288 290 290 289 290 292 291 292 293 294 300 305 300 286 272 263 258
203 204 204 204 205 204 205 209 214 219 223 226 229 234 237 239 250 272 293 299 300 300 303 306 309 312 315 315 315 313 312 311 309 305 301 297 294 292 290 288 286 284 283 282 282 283 284 285 286 287 287 288 289 289 290 292 294 296 298 298 291 280 271
202 202 203 202 201 201 204 207 211 217 227 231 235 241 245 256 281 299 303 299 296 295 298 303 308 312 313 313 312 311 309 307 306 304 301 297 293 290 288 287 285 284 283 282 281 280 280 280 281 282 283 284 285 285 286 287 288 289 289 290 292 294 292
200 200 200 199 198 199 201 204 212 222 230 236 242 249 260 283 301 304 299 292 291 295 302 307 310 311 311 312 311 310 307 305 304 303 300 298 295 292 289 286 284 283 282 283 282 281 279 278 277 276 276 276 277 278 280 281 280 280 281 280 281 286 291
199 198 199 199 197 197 199 206 218 227 234 242 250 259 279 299 301 296 294 296 304 312 316 316 316 314 314 314 311 308 305 303 302 300 298 296 294 292 291 288 286 284 283 282 282 282 282 280 278 275 273 271 270 270 271 273 274 274 274 272 270 271 272
196 195 197 198 195 194 201 211 220 231 239 244 255 274 292 297 293 297 313 324 327 326 323 320 319 318 317 315 312 308 304 301 300 298 295 293 292 291 290 289 287 285 284 283 282 282 282 280 279 277 274 272 269 266 265 267 270 270 271 273 270 266 262
188 192 195 193 191 192 201 215 226 232 235 240 262 279 282 283 308 333 336 334 330 325 322 321 321 320 318 315 313 308 303 300 298 295 293 291 290 289 288 288 286 284 283 283 282 282 281 280 279 278 276 273 270 267 264 264 265 266 267 269 268 266 263
183 187 187 183 185 194 206 221 226 222 223 239 255 255 253 301 327 331 329 329 327 325 325 323 322 321 319 317 313 308 303 299 296 293 291 289 287 286 286 285 284 283 283 283 282 282 281 280 280 279 277 275 271 269 266 263 263 263 263 263 263 264 264
176 176 176 177 186 197 207 213 209 206 216 230 232 235 270 300 314 324 331 334 334 332 330 327 325 323 320 318 314 310 305 301 296 293 290 288 286 285 283 282 282 282 283 283 282 281 280 280 279 278 276 274 271 269 267 264 261 259 260 262 265 268 270
169 168 168 176 187 194 198 198 197 201 207 212 224 248 271 292 316 330 336 340 339 336 333 330 327 324 321 318 314 311 308 303 298 293 290 288 286 283 281 280 280 280 281 281 282 280 280 279 278 276 274 272 271 269 266 264 262 260 259 261 265 269 272
163 163 166 177 185 188 189 189 190 193 198 214 232 248 270 301 320 328 335 341 340 338 336 335 330 325 321 318 314 312 309 304 299 293 290 288 285 282 280 278 278 279 278 279 279 279 279 277 275 274 272 271 270 268 266 265 264 262 259 260 262 265 268
162 163 170 179 181 179 178 180 186 194 213 233 240 256 280 296 309 321 333 340 340 338 336 335 332 324 319 317 314 312 310 305 300 295 292 289 285 282 280 278 277 277 276 277 277 277 276 275 273 271 270 270 269 265 264 265 264 262 260 259 261 264 266
164 167 172 175 174 170 170 177 191 211 240 249 253 265 273 279 294 314 328 338 342 340 334 331 329 323 318 315 313 312 310 306 301 297 294 291 287 284 281 279 278 277 276 276 275 274 273 271 269 267 266 267 266 264 263 263 262 262 262 260 260 263 266
168 169 168 165 162 161 166 182 209 235 250 252 254 260 261 266 285 313 329 340 344 341 335 330 326 322 317 314 312 310 308 304 301 299 296 293 290 286 283 280 278 277 276 275 274 274 273 270 267 266 263 261 260 263 265 265 261 260 260 259 259 261 264
169 164 159 157 156 164 183 206 226 240 246 246 248 252 254 259 280 313 326 334 338 338 336 330 325 321 317 313 310 308 305 302 300 299 296 293 290 287 284 281 280 277 276 275 274 274 272 269 266 264 261 258 258 260 263 263 262 260 259 260 261 261 263
158 152 151 155 163 179 197 212 228 239 243 243 245 246 249 259 276 297 313 323 329 333 333 330 325 322 318 313 309 307 303 300 300 298 295 291 288 286 284 282 281 280 277 276 275 273 271 269 265 263 261 260 260 259 259 259 259 259 258 259 261 262 262
149 152 156 163 177 190 200 213 232 243 243 241 241 240 249 266 274 286 301 312 322 329 331 330 327 324 320 314 310 307 303 300 299 295 292 289 288 287 285 283 282 282 279 277 276 273 271 268 265 262 262 262 262 260 258 257 254 253 253 253 255 256 257
154 159 164 172 183 190 202 222 238 244 240 237 237 243 256 268 270 279 292 302 316 328 330 328 328 327 322 315 310 307 304 300 298 295 292 290 288 287 286 285 284 282 280 277 275 272 270 267 264 262 260 260 260 259 256 253 250 248 248 248 247 249 251
Height
818 818 819 820 820 820 820 820 820 820 820 821 821 821 822 822 822 822 822 821 822 822 822 822 823 823 824 825 825 825 824 824 824 823 823 823 823 823 823 824 824 825 827 826 825 825 825 824 823 822 822 822 822 821 821 820 820 820 820 820 820 821 821
818 819 819 819 820 820 820 820 820 820 821 821 822 822 822 822 822 822 822 821 821 822 822 822 822 823 823 824 825 825 825 825 825 824 824 824 824 824 824 823 823 824 824 823 823 823 823 825 824 822 821 821 820 819 819 819 819 818 818 818 818 818 819
817 818 819 819 819 819 820 820 820 821 821 821 822 822 822 822 822 822 822 822 821 821 821 821 821 822 822 823 824 825 826 826 826 825 825 824 824 824 824 824 823 823 823 822 822 822 822 823 823 821 820 820 819 817 817 817 817 817 817 817 816 816 816
816 817 818 818 819 819 820 820 820 821 821 822 822 822 823 823 823 823 823 823 822 822 822 821 821 821 821 821 822 823 824 825 826 826 825 825 825 824 824 824 823 823 823 822 821 821 822 822 822 821 819 819 818 816 815 815 816 815 815 815 815 815 815
814 815 816 817 817 818 819 820 820 821 821 822 822 822 823 823 823 823 823 823 823 822 822 821 821 821 820 820 821 821 822 823 824 825 825 825 825 825 824 824 823 822 822 821 820 820 821 820 820 820 818 818 817 815 814 814 814 813 813 813 813 813 814
812 813 814 815 816 817 818 819 820 820 821 821 822 822 822 823 823 823 823 823 823 822 822 822 821 820 820 820 820 820 820 821 822 823 823 824 824 824 824 823 823 822 821 820 820 820 819 819 819 818 816 816 815 813 812 812 811 811 810 811 811 811 812
810 811 812 813 815 816 817 818 819 819 820 820 821 821 822 822 823 823 823 823 823 823 822 822 821 820 820 819 819 819 819 819 820 820 821 821 822 822 822 822 821 821 820 819 819 819 818 818 817 816 815 814 814 812 811 810 809 808 807 807 808 809 809
808 809 811 812 813 814 816 817 818 819 819 820 820 821 821 821 822 822 822 823 823 823 822 822 821 820 820 819 819 818 818 818 818 818 818 819 819 820 820 820 819 819 819 818 818 817 816 816 815 815 815 814 813 811 810 808 807 805 804 804 805 805 806
806 807 809 810 811 813 814 816 817 818 819 819 820 820 821 821 821 822 822 822 822 822 822 822 821 821 820 819 818 818 818 817 817 817 817 817 817 817 817 818 817 817 817 817 816 815 815 814 813 813 814 813 813 811 809 808 805 802 801 802 802 802 802
804 805 806 808 810 811 813 814 816 817 818 819 819 820 820 821 821 821 821 822 822 822 822 822 821 821 820 819 819 818 817 817 817 817 816 816 816 816 816 816 815 815 814 814 814 813 813 812 811 811 811 811 812 810 808 807 804 800 800 800 800 799 800
802 803 805 806 808 810 811 813 814 815 816 818 818 819 820 820 821 821 821 821 822 822 822 821 821 821 820 820 819 818 817 816 816 816 816 816 816 815 815 814 814 813 812 812 811 810 810 810 810 809 809 808 808 808 807 806 802 799 798 798 797 797 798
800 802 803 805 806 808 809 811 812 814 815 816 817 818 819 819 820 820 821 821 821 821 821 821 821 821 820 820 819 818 818 817 816 815 815 815 815 815 814 813 812 812 811 810 809 809 808 808 808 807 806 806 805 804 803 804 802 798 796 796 796 795 796
797 799 801 803 805 806 808 809 810 812 814 815 816 817 818 819 819 819 820 820 820 820 820 820 820 820 819 819 819 818 818 817 816 815 815 814 814 814 813 812 811 811 810 809 808 807 806 806 805 805 804 804 802 801 800 801 800 796 793 794 794 794 794
794 797 799 801 803 804 806 808 809 811 812 813 815 816 817 817 818 818 819 819 819 819 819 819 819 818 818 818 817 817 817 817 816 815 815 814 813 813 812 810 809 809 809 808 806 806 805 804 803 802 802 802 800 799 798 797 796 793 790 790 792 792 792
792 795 797 799 801 803 805 806 808 809 811 812 813 814 815 816 817 817 817 818 818 818 817 817 817 817 816 816 816 816 816 815 815 815 814 813 812 812 811 809 808 807 807 806 805 804 803 803 802 800 799 800 799 797 797 796 794 791 787 786 788 788 789
790 792 795 797 799 801 803 805 806 808 809 811 812 813 814 815 815 816 816 816 816 816 816 815 815 815 814 814 814 814 814 814 813 813 812 812 811 811 810 808 807 806 805 804 803 802 802 801 801 799 797 797 797 795 795 794 792 790 787 784 785 785 786
788 790 793 795 797 799 802 803 805 807 808 810 811 812 813 813 814 814 814 814 814 814 814 814 814 813 813 813 812 812 812 811 811 811 810 810 810 809 809 807 806 805 804 802 801 800 800 799 799 798 796 795 794 793 792 792 790 789 787 784 783 784 783
787 789 791 793 796 798 800 802 804 806 807 808 810 811 811 812 812 813 813 813 813 813 813 812 812 812 811 811 811 810 810 809 809 809 808 808 808 807 807 806 804 803 802 801 799 798 798 797 797 796 795 793 792 791 790 789 788 787 785 783 782 782 782
785 788 791 793 795 797 799 801 803 805 806 807 809 809 810 811 811 811 811 811 811 811 811 811 811 810 810 810 809 809 808 808 807 807 806 806 805 805 804 803 802 801 801 799 798 797 796 796 795 794 793 792 791 790 788 787 787 786 784 782 781 780 780
785 788 791 793 795 797 799 801 803 804 806 807 808 808 809 809 810 810 810 810 810 810 809 809 809 809 808 808 807 807 806 806 805 805 804 803 803 802 802 801 800 799 798 797 796 795 794 793 793 792 791 790 789 789 787 785 785 785 783 782 780 779 778
786 789 792 794 796 798 799 801 803 804 806 806 807 807 808 808 809 809 809 808 808 808 808 808 807 807 806 806 806 805 804 804 803 802 802 801 801 800 799 799 798 796 795 794 794 793 792 791 791 789 789 789 788 787 785 784 783 783 782 781 780 778 776
789 791 794 795 796 797 799 801 802 804 805 806 807 807 807 808 807 807 807 807 807 807 807 806 806 805 804 804 803 802 802 801 800 800 799 798 798 798 797 796 795 794 793 792 791 790 789 789 789 787 786 787 786 785 783 782 781 781 781 780 778 777 776
791 793 795 796 797 797 799 801 802 804 805 805 806 807 807 807 806 806 806 805 806 805 805 805 804 803 803 802 801 800 799 798 798 797 796 795 794 794 793 793 792 791 790 789 788 787 786 786 785 785 784 784 784 783 781 779 778 778 778 777 776 776 775
791 794 795 796 797 798 799 800 801 803 804 805 806 806 806 805 805 804 804 804 804 804 804 803 802 801 801 800 799 798 797 796 795 794 793 791 790 789 789 788 788 787 787 786 785 784 783 782 781 780 780 780 780 780 779 777 775 775 775 773 773 773 773
790 793 795 796 797 797 799 799 800 802 803 805 805 805 805 804 804 804 803 803 803 803 802 801 800 800 798 798 797 796 794 793 792 791 790 788 787 786 785 784 783 783 782 782 781 780 779 778 777 776 775 775 775 775 775 774 772 772 772 770 769 768 769
788 791 792 794 795 796 797 798 799 801 802 804 804 804 804 803 803 803 803 802 802 801 800 799 798 797 796 795 794 793 792 790 789 787 786 785 783 782 781 780 778 777 777 777 777 776 775 774 773 772 771 770 769 768 769 769 769 768 768 767 765 763 763
781 785 789 792 793 794 795 796 798 799 801 802 802 802 803 803 803 802 801 801 800 799 798 797 796 795 793 792 791 790 788 787 785 783 782 781 780 778 777 776 774 772 772 772 772 772 771 770 769 767 766 765 763 762 763 763 764 764 764 763 762 759 759
774 779 784 788 790 791 793 794 796 798 799 800 801 801 802 802 801 801 800 799 798 797 796 795 793 792 790 789 788 787 785 783 781 779 778 777 776 774 773 772 770 768 768 767 768 768 767 766 765 763 761 760 758 757 757 757 758 759 759 758 757 756 755
770 775 780 784 787 788 790 792 794 795 797 798 799 800 800 800 799 799 798 797 796 795 793 792 790 789 787 786 785 783 781 779 777 775 773 772 771 770 769 767 766 764 763 763 763 764 763 763 761 759 757 755 753 752 750 751 753 754 754 753 753 752 752
771 775 778 782 784 786 788 790 792 793 795 796 797 798 798 798 797 796 795 794 793 792 790 789 787 786 784 783 781 779 777 775 773 771 769 768 766 765 764 763 762 760 759 758 758 759 759 759 757 754 752 750 748 746 744 745 748 748 748 749 748 747 747
772 776 778 781 783 784 786 788 790 791 793 794 795 795 795 795 795 794 793 792 791 789 788 786 785 783 781 780 778 776 773 771 768 766 764 763 761 760 759 758 758 756 754 753 753 753 754 754 752 750 748 746 743 740 739 741 743 742 742 744 743 743 743
772 775 777 779 781 783 785 787 789 790 790 791 792 793 793 793 792 791 790 789 788 787 785 784 783 780 778 777 775 772 770 767 764 762 760 758 756 755 754 753 752 752 750 749 749 748 748 749 747 745 744 742 738 734 735 737 737 737 738 738 737 738 738
772 774 776 778 781 783 785 786 787 787 788 789 789 790 790 790 789 788 787 786 786 785 783 781 779 777 775 773 771 769 767 764 761 758 756 754 751 750 749 748 747 746 746 744 744 743 743 743 741 740 739 736 732 731 733 734 732 732 733 732 732 732 732
773 774 776 778 781 783 784 784 785 785 786 787 787 788 788 788 787 786 785 784 784 783 782 779 776 774 772 770 768 766 764 761 759 755 752 750 747 745 743 743 741 741 741 739 738 738 737 736 736 734 732 730 728 729 730 730 728 729 729 727 727 727 727
772 774 776 778 780 782 782 782 782 783 784 784 785 785 786 785 785 784 783 783 782 780 779 776 773 770 768 766 764 762 760 758 756 753 748 745 743 740 738 737 736 735 735 733 732 731 730 730 729 727 725 724 724 725 726 725 724 724 723 723 723 722 721
771 774 776 778 779 779 779 780 781 781 782 782 783 784 784 784 783 782 781 781 780 778 776 773 770 767 764 762 760 758 756 754 752 750 745 741 737 735 732 731 729 729 728 727 725 724 723 722 721 719 718 719 719 720 721 720 719 718 718 718 718 717 716
771 773 775 776 776 777 777 778 779 780 780 781 782 782 782 782 781 781 779 778 777 775 772 769 766 763 760 757 755 753 751 749 747 745 741 736 733 729 727 725 723 722 721 719 718 717 715 714 713 712 712 713 714 714 714 713 712 713 712 712 711 711 711